Location: Bailleul
(50.3375°N, 2.8513°E)
Time: 10:29:17
(UTC+00:00)

Cosmos 1190 Rocket - Pass Details

Date: 19 April 2021
Orbit: 757 x 779 km, 74.1° (Epoch: 05 May)

Event Time Altitude Azimuth Distance (km) Brightness Sun altitude
Exits shadow 21:09:55 16° 197° (SSW) 1,917 5.8 -19.3°
Maximum altitude 21:14:08 80° 112° (ESE) 782 3.9 -19.7°
Drops below altitude 10° 21:19:22 10° 26° (NNE) 2,304 6.8 -20.2°
Sets 21:21:44 0° 25° (NNE) 3,232 7.6 -20.5°
